VE6CPK-13 Weather Reports


time (UTC)temp
F
wind
direction
speed
knots
gust
knots
rain 1hr
in
rain 24hr
in
rain mn
in
humidity
%
barometer
mb
20201020021542 25 80 0.0 6.1 0.00 0.00 0.00 87 1013.3
20201020021042 25 80 0.0 6.1 0.00 0.00 0.00 87 1013.3
20201020020539 25 80 0.0 6.1 0.00 0.00 0.00 87 1013.2
20201020020038 25 80 0.0 6.1 0.00 0.00 0.00 87 1013.2
20201020015540 25 80 0.0 6.1 0.00 0.00 0.00 87 1013.2
20201020015039 25 80 0.0 6.1 0.00 0.00 0.00 87 1013.2
20201020014539 25 17 0.0 6.1 0.00 0.00 0.00 87 1013.2
20201020014040 25 66 0.9 6.1 0.00 0.00 0.00 87 1013.2
20201020013540 25 34 1.7 6.1 0.00 0.00 0.00 87 1013.1
20201020013041 25 25 0.0 6.1 0.00 0.00 0.00 87 1013.3
20201020012538 25 15 0.9 6.1 0.00 0.00 0.00 87 1013.1
20201020012038 25 35 0.9 6.1 0.00 0.00 0.00 87 1013.1
20201020011538 25 51 0.9 6.1 0.00 0.00 0.00 87 1013.0
20201020011039 25 20 0.0 6.1 0.00 0.00 0.00 87 1012.9
20201020010538 25 39 0.9 6.1 0.00 0.00 0.00 87 1013.0
20201020010040 25 22 0.9 6.1 0.00 0.00 0.00 87 1013.0
20201020005540 25 17 1.7 6.1 0.00 0.00 0.00 87 1012.9
20201020005038 25 42 0.0 6.1 0.00 0.00 0.00 86 1012.0
20201020004538 25 33 1.7 6.1 0.00 0.00 0.00 86 1012.1
20201020004038 25 35 0.9 6.1 0.00 0.00 0.00 86 1012.2
20201020003538 25 19 1.7 6.1 0.00 0.00 0.00 86 1011.9
20201020003041 25 32 0.0 6.1 0.00 0.00 0.00 86 1011.6
20201020002541 25 21 0.9 6.1 0.00 0.00 0.00 86 1011.4
20201020002040 25 22 0.9 6.1 0.00 0.00 0.00 85 1011.4
20201020001549 25 15 0.9 6.1 0.00 0.00 0.00 85 1011.2
20201020001038 25 15 0.0 6.1 0.00 0.00 0.00 85 1011.2
20201020000539 25 74 0.9 6.1 0.00 0.00 0.00 85 1011.2
20201020000038 25 77 0.0 6.1 0.00 0.00 0.00 85 1011.0
20201019235542 25 81 0.0 6.1 0.00 0.00 0.00 85 1010.7
20201019235038 25 81 0.0 6.1 0.00 0.00 0.00 85 1010.6
20201019234550 25 81 0.9 6.1 0.00 0.00 0.00 85 1010.7
20201019234043 25 101 0.0 6.1 0.00 0.00 0.00 85 1010.5
20201019233540 25 109 0.0 6.1 0.00 0.00 0.00 85 1010.5
20201019233039 25 109 0.0 6.1 0.00 0.00 0.00 85 1010.4
20201019232538 26 109 0.9 6.1 0.00 0.00 0.00 85 1010.2
20201019232038 26 94 0.0 6.1 0.00 0.00 0.00 85 1010.2
20201019231538 26 94 0.0 6.1 0.00 0.00 0.00 85 1010.3
20201019231040 26 94 0.0 6.1 0.00 0.00 0.00 85 1010.3
20201019230540 26 85 0.0 6.1 0.00 0.00 0.00 85 1010.1
20201019230046 26 185 0.0 6.1 0.00 0.00 0.00 85 1010.0
20201019225539 26 171 0.0 6.1 0.00 0.00 0.00 85 1010.1
20201019225038 26 183 0.0 6.1 0.00 0.00 0.00 85 1010.1
20201019224538 25 175 0.0 6.1 0.00 0.00 0.00 86 1010.1
20201019224038 25 167 0.0 6.1 0.00 0.00 0.00 86 1010.1
20201019223540 25 172 0.0 6.1 0.00 0.00 0.00 86 1010.2
20201019223038 25 173 0.0 6.1 0.00 0.00 0.00 85 1010.2
20201019222538 25 168 0.9 6.1 0.00 0.00 0.00 86 1010.2
20201019222038 25 155 0.9 6.1 0.00 0.00 0.00 86 1010.1
20201019221539 25 187 0.9 6.1 0.00 0.00 0.00 86 1010.2
20201019221043 25 180 0.0 6.1 0.00 0.00 0.00 86 1010.1
20201019220540 25 165 0.9 6.1 0.00 0.00 0.00 86 1009.9
20201019220039 25 192 0.0 6.1 0.00 0.00 0.00 87 1010.1
20201019215538 25 180 0.0 6.1 0.00 0.00 0.00 87 1010.3
20201019215040 25 181 0.0 6.1 0.00 0.00 0.00 88 1010.3
20201019214538 25 184 0.9 6.1 0.00 0.00 0.00 88 1010.2
20201019214043 25 174 0.9 6.1 0.00 0.00 0.00 88 1010.2
20201019213538 24 156 0.9 6.1 0.00 0.00 0.00 88 1010.3
20201019213038 24 177 0.0 6.1 0.00 0.00 0.00 89 1010.5
20201019212538 24 180 0.0 6.1 0.00 0.00 0.00 89 1010.4
20201019212038 24 176 1.7 6.1 0.00 0.00 0.00 89 1010.4
20201019211541 24 155 0.0 6.1 0.00 0.00 0.00 89 1010.5
20201019211040 23 177 0.0 6.1 0.00 0.00 0.00 89 1010.6
20201019210540 23 170 0.9 6.1 0.00 0.00 0.00 89 1010.6
20201019210038 23 173 0.0 6.1 0.00 0.00 0.00 89 1010.7
20201019205540 23 177 1.7 6.1 0.00 0.00 0.00 89 1010.7
20201019205041 23 192 0.9 6.1 0.00 0.00 0.00 90 1010.8
20201019204540 23 164 0.0 6.1 0.00 0.00 0.00 90 1010.9
20201019204041 23 182 0.9 6.1 0.00 0.00 0.00 90 1011.0
20201019203540 23 177 0.9 6.1 0.00 0.00 0.00 90 1011.0
20201019203041 23 173 0.0 6.1 0.00 0.00 0.00 90 1011.2
20201019202540 23 170 0.9 6.1 0.00 0.00 0.00 91 1011.2
20201019202039 23 143 0.9 6.1 0.00 0.00 0.00 91 1011.3
20201019201539 23 170 0.0 6.1 0.00 0.00 0.00 91 1011.3
20201019201039 23 174 0.9 6.1 0.00 0.00 0.00 91 1011.4
20201019200539 23 189 0.9 6.1 0.00 0.00 0.00 91 1011.6
20201019200039 22 164 0.0 6.1 0.00 0.00 0.00 91 1011.6
20201019195539 22 168 0.9 6.1 0.00 0.00 0.00 91 1011.7
20201019195046 22 163 0.9 6.1 0.00 0.00 0.00 91 1011.7
20201019194539 22 187 0.9 6.1 0.00 0.00 0.00 91 1011.7
20201019194039 22 178 1.7 6.1 0.00 0.00 0.00 91 1011.8
20201019193539 22 182 0.0 6.1 0.00 0.00 0.00 91 1011.9
20201019193039 22 192 0.0 6.1 0.00 0.00 0.00 91 1012.0
20201019192546 22 149 0.9 6.1 0.00 0.00 0.00 91 1012.1
20201019192045 22 171 0.0 6.1 0.00 0.00 0.00 91 1012.0
20201019191542 22 172 1.7 6.1 0.00 0.00 0.00 91 1012.2
20201019191039 22 172 1.7 6.1 0.00 0.00 0.00 91 1012.3
20201019190539 21 175 0.9 6.1 0.00 0.00 0.00 91 1012.3
20201019190039 21 177 1.7 6.1 0.00 0.00 0.00 91 1012.5
20201019185539 21 189 0.9 6.1 0.00 0.00 0.00 92 1012.6
20201019185039 21 188 0.9 6.1 0.00 0.00 0.00 91 1012.7
20201019184540 21 172 2.6 6.1 0.00 0.00 0.00 91 1012.7
20201019184039 21 174 1.7 6.1 0.00 0.00 0.00 91 1012.9
20201019183539 21 177 0.9 6.1 0.00 0.00 0.00 91 1012.9
20201019183039 21 174 1.7 6.1 0.00 0.00 0.00 92 1013.0
20201019182541 21 165 0.0 6.1 0.00 0.00 0.00 92 1013.1
20201019182039 21 176 0.9 6.1 0.00 0.00 0.00 92 1013.2
20201019181539 21 178 1.7 6.1 0.00 0.00 0.00 92 1013.2
20201019181043 21 184 0.9 6.1 0.00 0.00 0.00 92 1013.3
20201019180539 21 165 1.7 6.1 0.00 0.00 0.00 92 1013.5
20201019180043 20 200 0.9 6.1 0.00 0.00 0.00 91 1013.5
20201019175539 20 181 0.9 6.1 0.00 0.00 0.00 92 1013.5
20201019175039 20 185 0.9 6.1 0.00 0.00 0.00 92 1013.4
20201019174539 20 181 1.7 6.1 0.00 0.00 0.00 92 1013.4
20201019174039 20 190 0.0 6.1 0.00 0.00 0.00 92 1013.5
20201019173539 20 184 1.7 6.1 0.00 0.00 0.00 92 1013.6
20201019173040 20 169 0.9 6.1 0.00 0.00 0.00 91 1013.6
20201019172538 20 171 0.9 6.1 0.00 0.00 0.00 92 1013.6
20201019172039 20 192 0.0 6.1 0.00 0.00 0.00 91 1013.8
20201019171539 20 156 1.7 6.1 0.00 0.00 0.00 91 1013.8
20201019171040 20 178 1.7 6.1 0.00 0.00 0.00 91 1014.0
20201019170538 19 172 0.9 6.1 0.00 0.00 0.00 91 1014.0
20201019170047 20 175 0.9 6.1 0.00 0.00 0.00 91 1014.0
20201019165538 19 177 1.7 6.1 0.00 0.00 0.00 91 1014.0
20201019165038 19 197 1.7 6.1 0.00 0.00 0.00 92 1014.2
20201019164540 19 172 0.9 6.1 0.00 0.00 0.00 91 1014.5
20201019164038 19 190 0.9 6.1 0.00 0.00 0.00 91 1014.7
20201019163538 19 105 0.9 6.1 0.00 0.00 0.00 91 1014.6
20201019163038 19 189 1.7 6.1 0.00 0.00 0.00 91 1014.4
20201019162538 19 180 1.7 6.1 0.00 0.00 0.00 91 1014.7
20201019162039 19 176 0.9 6.1 0.00 0.00 0.00 91 1015.0
20201019161538 19 188 0.9 6.1 0.00 0.00 0.00 91 1014.8
20201019161038 19 188 2.6 6.1 0.00 0.00 0.00 91 1014.9
20201019160539 19 169 0.9 6.1 0.00 0.00 0.00 91 1014.8
20201019160038 19 159 0.9 6.1 0.00 0.00 0.00 91 1014.9
20201019155538 19 153 0.0 6.1 0.00 0.00 0.00 91 1014.9
20201019155043 19 180 0.9 6.1 0.00 0.00 0.00 91 1014.8
20201019154539 19 200 0.9 6.1 0.00 0.00 0.00 91 1014.9
20201019154038 19 187 0.9 6.1 0.00 0.00 0.00 91 1014.9
20201019153538 19 168 0.9 6.1 0.00 0.00 0.00 91 1015.1
20201019153040 19 186 2.6 6.1 0.00 0.00 0.00 91 1015.1
20201019152539 19 169 0.9 6.1 0.00 0.00 0.00 91 1015.2
20201019152044 19 191 1.7 6.1 0.00 0.00 0.00 91 1015.2
20201019151538 19 186 0.9 6.1 0.00 0.00 0.00 91 1015.2
20201019151039 19 192 0.9 6.1 0.00 0.00 0.00 91 1015.3
20201019150538 19 176 0.0 6.1 0.00 0.00 0.00 91 1015.1
20201019150045 19 178 0.0 6.1 0.00 0.00 0.00 91 1015.1
20201019145539 19 178 0.0 6.1 0.00 0.00 0.00 91 1015.1
20201019145038 19 161 0.9 6.1 0.00 0.00 0.00 91 1015.1
20201019144539 19 136 0.9 6.1 0.00 0.00 0.00 91 1015.1
20201019144038 19 197 0.9 6.1 0.00 0.00 0.00 91 1015.0
20201019143544 19 161 0.0 6.1 0.00 0.00 0.00 91 1015.2
20201019143038 19 166 0.0 6.1 0.00 0.00 0.00 91 1015.3
20201019142539 19 183 1.7 6.1 0.00 0.00 0.00 91 1015.2
20201019142038 19 176 0.9 6.1 0.00 0.00 0.00 91 1015.3
20201019141538 19 170 0.9 6.1 0.00 0.00 0.00 91 1015.3
20201019141038 19 165 0.9 6.1 0.00 0.00 0.00 91 1015.2
20201019140540 19 155 0.9 6.1 0.00 0.00 0.00 91 1015.2
20201019140053 19 187 0.9 6.1 0.00 0.00 0.00 91 1015.2
20201019135538 19 178 0.0 6.1 0.00 0.00 0.00 91 1015.4
20201019135038 19 190 0.9 6.1 0.00 0.00 0.00 91 1015.5
20201019134539 19 180 0.9 6.1 0.00 0.00 0.00 91 1015.7
20201019134039 19 172 0.9 6.1 0.00 0.00 0.00 91 1015.6
20201019133541 19 158 1.7 6.1 0.00 0.00 0.00 91 1015.5
20201019133038 19 173 0.9 6.1 0.00 0.00 0.00 91 1015.4
20201019132539 19 165 0.9 6.1 0.00 0.00 0.00 91 1015.4
20201019132040 19 173 0.9 6.1 0.00 0.00 0.00 91 1015.5
20201019131538 19 186 0.0 6.1 0.00 0.00 0.00 91 1015.6
20201019131038 19 182 1.7 6.1 0.00 0.00 0.00 91 1015.6
20201019130542 19 170 0.9 6.1 0.00 0.00 0.00 91 1015.5
20201019130038 19 180 0.9 6.1 0.00 0.00 0.00 91 1015.5
20201019125538 19 184 0.9 6.1 0.00 0.00 0.00 91 1015.5
20201019125038 19 178 1.7 6.1 0.00 0.00 0.00 91 1015.5
20201019124538 19 173 0.9 6.1 0.00 0.00 0.00 91 1015.6
20201019124040 19 180 0.9 6.1 0.00 0.00 0.00 91 1015.6
20201019123538 19 190 0.9 6.1 0.00 0.00 0.00 91 1015.6
20201019123038 19 186 0.0 6.1 0.00 0.00 0.00 91 1015.6
20201019122538 19 175 0.9 6.1 0.00 0.00 0.00 90 1015.8
20201019122039 19 143 0.0 6.1 0.00 0.00 0.00 90 1015.9
20201019121538 19 160 0.9 6.1 0.00 0.00 0.00 90 1015.7
20201019121038 19 177 1.7 6.1 0.00 0.00 0.00 90 1015.7
20201019120545 19 174 0.9 6.1 0.00 0.00 0.00 90 1015.8
20201019120039 19 169 0.9 6.1 0.00 0.00 0.00 90 1015.8
20201019115538 19 174 0.9 6.1 0.00 0.00 0.00 90 1016.0
20201019115040 19 174 0.9 5.2 0.00 0.00 0.00 90 1016.1
20201019114541 18 168 0.9 5.2 0.00 0.00 0.00 90 1016.1
20201019114039 18 181 0.9 5.2 0.00 0.00 0.00 90 1016.1
20201019113538 19 185 0.9 5.2 0.00 0.00 0.00 90 1016.1
20201019113038 19 201 1.7 5.2 0.00 0.00 0.00 90 1016.1
20201019112538 19 180 1.7 5.2 0.00 0.00 0.00 90 1016.2
20201019112039 19 181 0.9 5.2 0.00 0.00 0.00 89 1016.4
20201019111538 19 174 0.9 5.2 0.00 0.00 0.00 89 1016.5
20201019111045 19 169 0.9 5.2 0.00 0.00 0.00 89 1016.5
20201019110541 19 168 1.7 5.2 0.00 0.00 0.00 89 1016.6
20201019110048 19 159 0.0 5.2 0.00 0.00 0.00 90 1016.6
20201019105544 19 165 0.0 5.2 0.00 0.00 0.00 89 1016.6
20201019105038 19 171 0.0 5.2 0.00 0.00 0.00 90 1016.8
20201019104538 19 158 0.0 5.2 0.00 0.00 0.00 89 1016.9
20201019104039 19 192 0.9 5.2 0.00 0.00 0.00 89 1016.9
20201019103538 18 194 0.0 5.2 0.00 0.00 0.00 89 1016.9
20201019103041 18 160 0.0 5.2 0.00 0.00 0.00 89 1017.0
20201019102539 18 186 0.0 5.2 0.00 0.00 0.00 89 1016.9
20201019102038 19 177 0.9 5.2 0.00 0.00 0.00 89 1017.0
20201019101538 19 181 0.0 5.2 0.00 0.00 0.00 89 1017.1
20201019101040 19 182 0.9 5.2 0.00 0.00 0.00 89 1017.1
20201019100540 19 188 0.0 5.2 0.00 0.00 0.00 89 1017.2
20201019100038 19 177 0.0 5.2 0.00 0.00 0.00 89 1017.3
20201019095540 19 186 0.9 5.2 0.00 0.00 0.00 89 1017.1
20201019095041 19 167 1.7 5.2 0.00 0.00 0.00 89 1017.3
20201019094541 19 182 0.9 5.2 0.00 0.00 0.00 89 1017.2
20201019094040 19 188 0.9 5.2 0.00 0.00 0.00 89 1017.3
20201019093540 19 187 0.0 5.2 0.00 0.00 0.00 89 1017.4
20201019093041 19 136 0.0 5.2 0.00 0.00 0.00 89 1017.4
20201019092541 19 188 0.0 5.2 0.00 0.00 0.00 89 1017.5
20201019092040 19 190 0.9 5.2 0.00 0.00 0.00 89 1017.6
20201019091541 19 188 0.9 5.2 0.00 0.00 0.00 89 1017.7
20201019091040 19 175 0.0 5.2 0.00 0.00 0.00 89 1017.7
20201019090544 19 190 0.9 5.2 0.00 0.00 0.00 89 1017.7
20201019090042 19 187 0.9 5.2 0.00 0.00 0.00 89 1017.8
20201019085548 19 184 0.9 5.2 0.00 0.00 0.00 89 1017.9
20201019085041 19 170 0.9 5.2 0.00 0.00 0.00 89 1018.0
20201019084542 19 165 0.0 5.2 0.00 0.00 0.00 89 1018.0
20201019084045 19 167 0.0 5.2 0.00 0.00 0.00 89 1018.1
20201019083541 19 167 0.9 5.2 0.00 0.00 0.00 89 1018.1
20201019083043 19 169 0.0 5.2 0.00 0.00 0.00 89 1018.1
20201019082540 19 137 0.9 5.2 0.00 0.00 0.00 89 1018.1
20201019082040 19 186 0.9 5.2 0.00 0.00 0.00 89 1018.2
20201019081540 19 165 0.9 5.2 0.00 0.00 0.00 89 1018.2
20201019081040 19 169 0.9 5.2 0.00 0.00 0.00 89 1018.3
20201019080540 19 178 0.9 5.2 0.00 0.00 0.00 89 1018.4
20201019080040 19 191 0.0 5.2 0.00 0.00 0.00 89 1018.4
20201019075540 19 170 2.6 5.2 0.00 0.00 0.00 89 1018.4
20201019075041 19 171 0.0 4.3 0.00 0.00 0.00 89 1018.6
20201019074545 19 134 0.9 4.3 0.00 0.00 0.00 89 1018.4
20201019074039 19 185 0.9 4.3 0.00 0.00 0.00 89 1018.6
20201019073539 19 158 0.0 4.3 0.00 0.00 0.00 89 1018.6
20201019073041 19 155 0.0 4.3 0.00 0.00 0.00 89 1018.5
20201019072540 19 184 0.9 4.3 0.00 0.00 0.00 89 1018.5
20201019072039 19 181 0.0 4.3 0.00 0.00 0.00 89 1018.6
20201019071540 19 180 0.0 4.3 0.00 0.00 0.00 89 1018.6
20201019071051 19 170 0.0 4.3 0.00 0.00 0.00 89 1018.8
20201019070539 19 172 0.0 4.3 0.00 0.00 0.00 89 1018.8
20201019070043 19 180 0.9 4.3 0.00 0.00 0.00 89 1018.8
20201019065540 19 180 0.9 4.3 0.00 0.00 0.00 89 1018.8
20201019065041 19 186 0.0 4.3 0.00 0.00 0.00 89 1018.8
20201019064543 19 178 0.0 4.3 0.00 0.00 0.00 89 1018.9
20201019064042 19 168 0.0 4.3 0.00 0.00 0.00 88 1018.9
20201019063540 19 164 0.9 4.3 0.00 0.00 0.00 88 1019.0
20201019063040 19 183 0.9 4.3 0.00 0.00 0.00 88 1019.0
20201019062540 19 169 0.0 4.3 0.00 0.00 0.00 89 1019.1
20201019062040 19 171 0.0 4.3 0.00 0.00 0.00 88 1019.2
20201019061541 19 170 0.9 4.3 0.00 0.00 0.00 88 1019.2
20201019061039 19 159 0.0 3.5 0.00 0.00 0.00 88 1019.3
20201019060539 19 184 0.0 2.6 0.00 0.00 0.00 88 1019.4
20201019060044 19 185 0.9 0.0 0.00 0.00 0.00 88 1019.4
20201019055540 19 194 0.9 5.2 0.00 0.00 0.00 88 1019.5
20201019055041 19 183 0.0 5.2 0.00 0.00 0.00 88 1019.6
20201019054539 19 171 0.0 5.2 0.00 0.00 0.00 88 1019.7
20201019054039 19 159 0.9 5.2 0.00 0.00 0.00 88 1019.7
20201019053541 19 187 0.9 5.2 0.00 0.00 0.00 88 1019.9
20201019053043 19 158 0.9 5.2 0.00 0.00 0.00 88 1019.9
20201019052539 19 177 0.9 5.2 0.00 0.00 0.00 88 1019.9
20201019052039 19 191 0.9 5.2 0.00 0.00 0.00 88 1019.9
20201019051540 19 185 0.0 5.2 0.00 0.00 0.00 88 1019.9
20201019051040 19 175 0.9 5.2 0.00 0.00 0.00 88 1020.0
20201019050539 19 169 0.9 5.2 0.00 0.00 0.00 88 1020.0
20201019050043 19 188 0.9 5.2 0.00 0.00 0.00 88 1019.9
20201019045539 19 169 0.9 5.2 0.00 0.00 0.00 88 1020.0
20201019045041 19 182 0.9 5.2 0.00 0.00 0.00 88 1020.1
20201019044543 19 157 0.9 5.2 0.00 0.00 0.00 88 1020.1
20201019044040 19 169 0.0 5.2 0.00 0.00 0.00 88 1020.1
20201019043538 19 177 0.0 5.2 0.00 0.00 0.00 88 1020.2
20201019043043 19 164 0.9 5.2 0.00 0.00 0.00 88 1020.3
20201019042538 19 170 0.9 5.2 0.00 0.00 0.00 88 1020.4
20201019042038 19 177 0.9 5.2 0.00 0.00 0.00 88 1020.4
20201019041540 19 177 0.9 5.2 0.00 0.00 0.00 88 1020.4
20201019041042 19 175 0.0 5.2 0.00 0.00 0.00 88 1020.5
20201019040538 19 176 0.0 5.2 0.00 0.00 0.00 88 1020.4
20201019040038 19 174 0.0 5.2 0.00 0.00 0.00 88 1020.4
20201019035541 19 177 0.9 5.2 0.00 0.00 0.00 88 1020.6
20201019035040 19 177 0.0 5.2 0.00 0.00 0.00 88 1020.6
20201019034539 19 189 0.0 5.2 0.00 0.00 0.00 88 1020.6
20201019034040 19 171 0.0 5.2 0.00 0.00 0.00 88 1020.6
20201019033539 19 147 0.0 5.2 0.00 0.00 0.00 88 1020.6
20201019033043 19 105 0.0 5.2 0.00 0.00 0.00 88 1020.6
20201019032539 19 202 0.9 5.2 0.00 0.00 0.00 88 1020.8
20201019032039 19 183 0.0 5.2 0.00 0.00 0.00 88 1020.8
20201019031538 19 183 0.9 5.2 0.00 0.00 0.00 88 1020.8
20201019031038 19 180 1.7 5.2 0.00 0.00 0.00 88 1020.8
20201019030538 19 188 0.9 5.2 0.00 0.00 0.00 88 1020.9
20201019030041 19 186 0.9 5.2 0.00 0.00 0.00 88 1020.8
20201019025539 19 198 0.9 5.2 0.00 0.00 0.00 88 1020.9
20201019025039 19 202 0.9 5.2 0.00 0.00 0.00 88 1020.9
20201019024541 19 186 0.9 5.2 0.00 0.00 0.00 88 1020.9
20201019024039 19 180 0.0 5.2 0.00 0.00 0.00 87 1020.9
20201019023541 19 167 0.0 5.2 0.00 0.00 0.00 87 1020.9
20201019023038 19 197 0.0 5.2 0.00 0.00 0.00 87 1021.0
20201019022539 19 197 0.0 5.2 0.00 0.00 0.00 87 1021.1
20201019022104 19 197 0.9 5.2 0.00 0.00 0.00 87 1021.2